QPF
0.03 0.03 0.02 0.03 0.05 0.07 0.08 0.07 0.06 0.07 0.06 0.06 0.06 0.06 0.06 0.05 0.05 0.06 0.06 0.06 0.05 0.04 0.04 0.03 0.02 0.02 0.03 0.03 0.03 0.02 0.03 0.03 0.03 0.02 0.03 0.03 0.02 0.03 0.03 0.02 0.03 0.03 0.03
0.03 0.02 0.02 0.02 0.03 0.04 0.07 0.06 0.04 0.04 0.05 0.05 0.04 0.04 0.04 0.05 0.05 0.05 0.05 0.05 0.06 0.05 0.04 0.04 0.03 0.02 0.02 0.03 0.03 0.03 0.03 0.03 0.03 0.03 0.04 0.05 0.04 0.04 0.03 0.04 0.05 0.04 0.03
0.03 0.02 0.02 0.02 0.02 0.03 0.05 0.05 0.03 0.02 0.02 0.03 0.04 0.05 0.06 0.06 0.04 0.03 0.03 0.04 0.05 0.05 0.05 0.04 0.03 0.02 0.02 0.02 0.02 0.02 0.02 0.02 0.02 0.02 0.03 0.04 0.03 0.03 0.04 0.06 0.09 0.05 0.03
0.03 0.03 0.02 0.02 0.02 0.02 0.03 0.05 0.04 0.03 0.03 0.03 0.05 0.06 0.05 0.04 0.03 0.03 0.03 0.03 0.05 0.05 0.03 0.03 0.03 0.03 0.02 0.02 0.02 0.02 0.02 0.02 0.02 0.02 0.02 0.02 0.03 0.03 0.05 0.09 0.08 0.05 0.03
0.02 0.02 0.02 0.02 0.02 0.02 0.02 0.04 0.05 0.04 0.05 0.05 0.05 0.06 0.05 0.05 0.03 0.02 0.02 0.03 0.04 0.04 0.04 0.03 0.03 0.02 0.02 0.02 0.01 0.01 0.02 0.02 0.02 0.01 0.01 0.01 0.02 0.03 0.04 0.07 0.08 0.06 0.04
0.01 0.02 0.02 0.02 0.02 0.02 0.03 0.04 0.05 0.05 0.05 0.05 0.06 0.06 0.05 0.04 0.03 0.02 0.02 0.02 0.03 0.03 0.04 0.04 0.04 0.03 0.02 0.02 0.02 0.03 0.03 0.02 0.02 0.02 0.02 0.02 0.03 0.03 0.04 0.04 0.07 0.08 0.06
0.01 0.02 0.02 0.02 0.02 0.02 0.03 0.03 0.03 0.04 0.04 0.05 0.07 0.05 0.04 0.03 0.03 0.02 0.02 0.02 0.02 0.03 0.04 0.04 0.04 0.04 0.03 0.03 0.03 0.03 0.03 0.03 0.03 0.03 0.03 0.03 0.04 0.04 0.04 0.04 0.05 0.06 0.06
0.02 0.02 0.02 0.02 0.02 0.02 0.03 0.02 0.02 0.02 0.04 0.05 0.07 0.05 0.04 0.03 0.02 0.02 0.03 0.03 0.03 0.03 0.04 0.05 0.05 0.05 0.05 0.05 0.04 0.03 0.03 0.03 0.03 0.02 0.01 0.02 0.03 0.03 0.02 0.03 0.04 0.05 0.05
0.01 0.01 0.01 0.01 0.01 0.02 0.02 0.02 0.02 0.03 0.04 0.05 0.06 0.05 0.04 0.03 0.02 0.02 0.03 0.04 0.04 0.03 0.03 0.04 0.06 0.07 0.06 0.06 0.04 0.03 0.02 0.02 0.02 0.02 0.02 0.01 0.02 0.03 0.03 0.03 0.03 0.04 0.05
0.01 0.01 0.01 0.01 0.01 0.02 0.03 0.02 0.03 0.04 0.04 0.05 0.06 0.05 0.04 0.02 0.02 0.02 0.02 0.02 0.02 0.03 0.03 0.03 0.05 0.06 0.06 0.06 0.04 0.03 0.02 0.02 0.02 0.01 0.01 0.01 0.02 0.03 0.03 0.03 0.03 0.04 0.05
0.01 0.01 0.01 0.02 0.02 0.03 0.03 0.04 0.04 0.04 0.04 0.06 0.05 0.04 0.04 0.03 0.03 0.03 0.02 0.02 0.02 0.02 0.03 0.04 0.05 0.07 0.06 0.05 0.04 0.03 0.02 0.01 0.01 0.01 0.01 0.01 0.01 0.02 0.03 0.03 0.04 0.04 0.05
0.01 0.01 0.01 0.02 0.03 0.03 0.04 0.05 0.05 0.04 0.06 0.05 0.03 0.04 0.04 0.03 0.03 0.03 0.03 0.02 0.03 0.03 0.03 0.04 0.04 0.06 0.05 0.05 0.03 0.02 0.02 0.02 0.01 0.02 0.02 0.03 0.02 0.02 0.02 0.03 0.04 0.05 0.06
0.02 0.02 0.02 0.03 0.05 0.08 0.09 0.07 0.06 0.06 0.05 0.03 0.04 0.04 0.03 0.03 0.03 0.02 0.02 0.03 0.04 0.04 0.04 0.04 0.05 0.06 0.05 0.04 0.04 0.03 0.03 0.02 0.01 0.02 0.02 0.03 0.04 0.03 0.02 0.03 0.03 0.04 0.05
0.02 0.01 0.02 0.03 0.06 0.08 0.07 0.06 0.05 0.03 0.03 0.03 0.04 0.04 0.03 0.03 0.03 0.02 0.02 0.03 0.04 0.04 0.04 0.04 0.06 0.06 0.05 0.05 0.05 0.05 0.04 0.02 0.02 0.02 0.03 0.03 0.03 0.03 0.03 0.03 0.04 0.04 0.04
0.01 0.02 0.02 0.03 0.05 0.04 0.03 0.05 0.05 0.04 0.04 0.04 0.05 0.04 0.03 0.02 0.01 0.01 0.02 0.03 0.05 0.05 0.04 0.04 0.05 0.05 0.04 0.04 0.03 0.03 0.04 0.03 0.03 0.03 0.03 0.04 0.03 0.04 0.04 0.04 0.05 0.05 0.04
0.01 0.02 0.03 0.02 0.02 0.01 0.01 0.04 0.05 0.04 0.04 0.04 0.04 0.02 0.02 0.01 0.01 0.01 0.02 0.03 0.03 0.03 0.03 0.03 0.03 0.04 0.04 0.04 0.04 0.03 0.03 0.03 0.03 0.03 0.04 0.04 0.04 0.05 0.05 0.05 0.06 0.07 0.07
0.01 0.02 0.01 0.01 0.00 0.00 0.01 0.02 0.02 0.03 0.04 0.02 0.02 0.02 0.01 0.01 0.00 0.01 0.01 0.01 0.02 0.02 0.02 0.02 0.03 0.03 0.02 0.02 0.02 0.02 0.03 0.03 0.03 0.04 0.04 0.05 0.06 0.06 0.07 0.06 0.05 0.05 0.06
0.02 0.02 0.01 0.00 0.00 0.00 0.01 0.01 0.01 0.02 0.02 0.01 0.01 0.02 0.01 0.00 0.00 0.00 0.00 0.01 0.01 0.02 0.02 0.03 0.03 0.02 0.02 0.01 0.01 0.01 0.01 0.01 0.02 0.04 0.05 0.06 0.06 0.06 0.05 0.04 0.04 0.04 0.04
0.02 0.00 0.01 0.00 0.00 0.00 0.00 0.01 0.01 0.01 0.01 0.00 0.01 0.01 0.01 0.00 0.00 0.00 0.00 0.00 0.01 0.01 0.03 0.03 0.02 0.01 0.02 0.01 0.01 0.01 0.01 0.02 0.03 0.04 0.04 0.05 0.06 0.05 0.04 0.03 0.03 0.03 0.03
0.01 0.00 0.00 0.00 0.00 0.00 0.00 0.00 0.00 0.00 0.00 0.00 0.00 0.00 0.00 0.00 0.00 0.00 0.00 0.01 0.01 0.02 0.02 0.02 0.01 0.02 0.02 0.02 0.02 0.02 0.02 0.02 0.02 0.02 0.02 0.02 0.03 0.03 0.03 0.03 0.03 0.02 0.02
0.00 0.00 0.00 0.00 0.00 0.00 0.00 0.00 0.00 0.00 0.00 0.00 0.00 0.00 0.00 0.00 0.00 0.00 0.00 0.01 0.02 0.01 0.01 0.01 0.01 0.01 0.02 0.02 0.02 0.02 0.02 0.02 0.01 0.01 0.01 0.01 0.02 0.02 0.02 0.03 0.03 0.03 0.02
0.00 0.00 0.00 0.00 0.00 0.00 0.00 0.00 0.00 0.00 0.00 0.00 0.00 0.00 0.00 0.01 0.01 0.01 0.01 0.01 0.01 0.01 0.01 0.01 0.01 0.01 0.02 0.03 0.03 0.02 0.02 0.02 0.01 0.01 0.01 0.01 0.01 0.01 0.02 0.02 0.02 0.03 0.02
0.00 0.00 0.00 0.00 0.00 0.00 0.00 0.01 0.01 0.00 0.00 0.00 0.00 0.01 0.01 0.01 0.01 0.01 0.01 0.00 0.00 0.00 0.00 0.00 0.00 0.00 0.01 0.01 0.01 0.02 0.02 0.02 0.02 0.02 0.02 0.02 0.01 0.01 0.01 0.01 0.02 0.03 0.03
0.00 0.00 0.00 0.00 0.00 0.00 0.00 0.00 0.01 0.01 0.01 0.01 0.01 0.01 0.01 0.01 0.01 0.01 0.00 0.00 0.00 0.00 0.00 0.00 0.00 0.00 0.00 0.00 0.00 0.00 0.01 0.01 0.02 0.02 0.02 0.01 0.01 0.01 0.01 0.01 0.01 0.02 0.02
0.00 0.00 0.00 0.00 0.00 0.00 0.00 0.00 0.00 0.01 0.01 0.01 0.01 0.01 0.01 0.00 0.00 0.00 0.00 0.00 0.00 0.00 0.00 0.00 0.00 0.00 0.00 0.00 0.00 0.00 0.00 0.00 0.01 0.01 0.01 0.01 0.01 0.01 0.00 0.00 0.01 0.01 0.02
0.00 0.01 0.01 0.01 0.00 0.00 0.00 0.00 0.00 0.01 0.01 0.01 0.01 0.01 0.00 0.00 0.00 0.00 0.00 0.00 0.00 0.00 0.00 0.00 0.00 0.00 0.00 0.00 0.00 0.00 0.00 0.00 0.00 0.01 0.01 0.01 0.01 0.01 0.01 0.01 0.01 0.02 0.03
MSLP
1009.83 1010.15 1010.47 1010.77 1011.03 1011.24 1011.41 1011.53 1011.63 1011.71 1011.79 1011.87 1011.95 1012.02 1012.08 1012.13 1012.16 1012.18 1012.19 1012.18 1012.18 1012.16 1012.14 1012.10 1012.03 1011.94 1011.80 1011.65 1011.46 1011.24 1011.02 1010.77 1010.50 1010.22 1009.91 1009.58 1009.23 1008.87 1008.52 1008.19 1007.90 1007.68 1007.52
1010.33 1010.55 1010.78 1011.00 1011.21 1011.38 1011.52 1011.63 1011.70 1011.76 1011.79 1011.82 1011.85 1011.86 1011.87 1011.87 1011.86 1011.83 1011.80 1011.75 1011.68 1011.60 1011.49 1011.36 1011.21 1011.04 1010.84 1010.64 1010.44 1010.24 1010.04 1009.83 1009.61 1009.38 1009.11 1008.80 1008.47 1008.11 1007.75 1007.40 1007.10 1006.86 1006.68
1010.78 1010.92 1011.08 1011.24 1011.39 1011.52 1011.62 1011.69 1011.73 1011.74 1011.73 1011.70 1011.67 1011.62 1011.57 1011.51 1011.45 1011.38 1011.30 1011.20 1011.08 1010.93 1010.76 1010.56 1010.34 1010.11 1009.87 1009.64 1009.42 1009.22 1009.04 1008.87 1008.69 1008.48 1008.24 1007.95 1007.62 1007.27 1006.90 1006.55 1006.24 1005.98 1005.79
1011.12 1011.22 1011.32 1011.42 1011.52 1011.60 1011.66 1011.69 1011.69 1011.66 1011.59 1011.51 1011.41 1011.30 1011.18 1011.07 1010.95 1010.84 1010.71 1010.56 1010.40 1010.20 1009.98 1009.73 1009.46 1009.19 1008.92 1008.66 1008.44 1008.24 1008.06 1007.90 1007.73 1007.54 1007.30 1007.02 1006.70 1006.34 1005.98 1005.63 1005.32 1005.06 1004.87
1011.33 1011.40 1011.46 1011.52 1011.58 1011.61 1011.63 1011.62 1011.57 1011.49 1011.37 1011.23 1011.08 1010.91 1010.74 1010.56 1010.40 1010.23 1010.06 1009.88 1009.67 1009.44 1009.18 1008.90 1008.60 1008.29 1008.00 1007.73 1007.49 1007.28 1007.10 1006.93 1006.76 1006.56 1006.31 1006.03 1005.70 1005.34 1004.98 1004.64 1004.35 1004.11 1003.93
1011.40 1011.46 1011.50 1011.53 1011.54 1011.54 1011.52 1011.46 1011.36 1011.24 1011.08 1010.89 1010.68 1010.46 1010.24 1010.02 1009.81 1009.60 1009.39 1009.17 1008.93 1008.67 1008.39 1008.08 1007.76 1007.44 1007.13 1006.84 1006.59 1006.36 1006.16 1005.97 1005.77 1005.54 1005.29 1004.99 1004.65 1004.30 1003.95 1003.63 1003.36 1003.14 1002.99
1011.41 1011.46 1011.48 1011.48 1011.45 1011.40 1011.33 1011.22 1011.09 1010.92 1010.72 1010.50 1010.25 1009.99 1009.73 1009.47 1009.22 1008.97 1008.72 1008.47 1008.21 1007.93 1007.62 1007.31 1006.98 1006.64 1006.32 1006.02 1005.74 1005.49 1005.26 1005.03 1004.80 1004.55 1004.26 1003.94 1003.60 1003.26 1002.92 1002.63 1002.38 1002.19 1002.06
1011.40 1011.43 1011.42 1011.38 1011.30 1011.20 1011.08 1010.93 1010.76 1010.55 1010.32 1010.07 1009.79 1009.51 1009.22 1008.93 1008.64 1008.37 1008.09 1007.82 1007.53 1007.23 1006.92 1006.59 1006.25 1005.91 1005.58 1005.26 1004.97 1004.69 1004.42 1004.16 1003.89 1003.60 1003.29 1002.96 1002.61 1002.26 1001.94 1001.66 1001.43 1001.27 1001.16
1011.41 1011.41 1011.36 1011.26 1011.13 1010.98 1010.80 1010.60 1010.39 1010.16 1009.90 1009.63 1009.34 1009.05 1008.74 1008.44 1008.14 1007.84 1007.54 1007.24 1006.94 1006.62 1006.30 1005.97 1005.63 1005.28 1004.94 1004.61 1004.30 1003.99 1003.70 1003.40 1003.09 1002.77 1002.43 1002.08 1001.71 1001.36 1001.04 1000.76 1000.54 1000.38 1000.28
1011.46 1011.41 1011.30 1011.14 1010.94 1010.72 1010.50 1010.26 1010.01 1009.76 1009.50 1009.23 1008.94 1008.65 1008.35 1008.04 1007.73 1007.42 1007.10 1006.79 1006.48 1006.15 1005.82 1005.48 1005.14 1004.80 1004.45 1004.11 1003.78 1003.45 1003.12 1002.80 1002.46 1002.10 1001.73 1001.35 1000.96 1000.59 1000.25 999.95 999.70 999.53 999.41
1011.52 1011.41 1011.23 1011.00 1010.74 1010.46 1010.19 1009.92 1009.66 1009.40 1009.15 1008.90 1008.63 1008.36 1008.07 1007.77 1007.47 1007.16 1006.84 1006.52 1006.19 1005.86 1005.53 1005.18 1004.84 1004.49 1004.14 1003.80 1003.45 1003.10 1002.75 1002.39 1002.02 1001.63 1001.22 1000.80 1000.38 999.96 999.57 999.22 998.92 998.69 998.53
1011.57 1011.38 1011.13 1010.83 1010.52 1010.20 1009.90 1009.62 1009.36 1009.12 1008.90 1008.67 1008.45 1008.21 1007.95 1007.68 1007.39 1007.09 1006.78 1006.46 1006.13 1005.80 1005.46 1005.11 1004.76 1004.41 1004.06 1003.70 1003.34 1002.97 1002.60 1002.21 1001.80 1001.37 1000.92 1000.44 999.96 999.48 999.01 998.58 998.20 997.89 997.64
1011.54 1011.28 1010.97 1010.63 1010.28 1009.95 1009.65 1009.38 1009.15 1008.95 1008.77 1008.59 1008.42 1008.22 1008.02 1007.78 1007.52 1007.24 1006.94 1006.62 1006.30 1005.96 1005.62 1005.28 1004.93 1004.57 1004.21 1003.84 1003.46 1003.07 1002.67 1002.24 1001.79 1001.31 1000.80 1000.26 999.70 999.14 998.58 998.05 997.56 997.13 996.79
1011.39 1011.08 1010.74 1010.38 1010.04 1009.72 1009.45 1009.23 1009.05 1008.91 1008.79 1008.68 1008.56 1008.42 1008.26 1008.07 1007.84 1007.59 1007.31 1007.01 1006.69 1006.36 1006.03 1005.68 1005.32 1004.96 1004.59 1004.20 1003.80 1003.38 1002.93 1002.46 1001.96 1001.42 1000.85 1000.24 999.60 998.94 998.28 997.63 997.02 996.47 996.01
1011.13 1010.80 1010.46 1010.13 1009.82 1009.56 1009.35 1009.19 1009.08 1009.01 1008.96 1008.92 1008.86 1008.79 1008.68 1008.52 1008.34 1008.11 1007.86 1007.58 1007.28 1006.96 1006.62 1006.28 1005.91 1005.54 1005.14 1004.73 1004.30 1003.84 1003.35 1002.84 1002.28 1001.68 1001.04 1000.35 999.62 998.87 998.11 997.35 996.63 995.97 995.39
1010.78 1010.47 1010.17 1009.89 1009.66 1009.48 1009.35 1009.28 1009.25 1009.26 1009.28 1009.30 1009.30 1009.27 1009.21 1009.10 1008.94 1008.75 1008.52 1008.27 1007.98 1007.68 1007.35 1007.00 1006.63 1006.24 1005.82 1005.38 1004.91 1004.41 1003.88 1003.30 1002.69 1002.03 1001.33 1000.57 999.78 998.95 998.11 997.26 996.45 995.69 995.01
1010.41 1010.15 1009.92 1009.73 1009.60 1009.51 1009.48 1009.50 1009.55 1009.62 1009.70 1009.77 1009.81 1009.82 1009.79 1009.71 1009.59 1009.43 1009.23 1009.00 1008.74 1008.45 1008.14 1007.79 1007.41 1007.00 1006.56 1006.08 1005.57 1005.03 1004.44 1003.82 1003.16 1002.44 1001.69 1000.89 1000.05 999.18 998.28 997.38 996.51 995.68 994.93
1010.10 1009.91 1009.78 1009.69 1009.66 1009.68 1009.74 1009.83 1009.95 1010.07 1010.19 1010.28 1010.35 1010.38 1010.37 1010.32 1010.22 1010.09 1009.92 1009.72 1009.49 1009.22 1008.92 1008.57 1008.19 1007.77 1007.30 1006.79 1006.24 1005.65 1005.02 1004.35 1003.65 1002.90 1002.12 1001.30 1000.44 999.55 998.64 997.72 996.82 995.96 995.17
1009.89 1009.80 1009.77 1009.80 1009.86 1009.97 1010.11 1010.26 1010.42 1010.56 1010.70 1010.80 1010.87 1010.90 1010.90 1010.86 1010.79 1010.69 1010.56 1010.39 1010.18 1009.94 1009.65 1009.32 1008.93 1008.50 1008.01 1007.47 1006.88 1006.25 1005.58 1004.88 1004.15 1003.40 1002.60 1001.78 1000.94 1000.06 999.17 998.28 997.39 996.53 995.72
1009.85 1009.86 1009.94 1010.06 1010.21 1010.39 1010.57 1010.76 1010.92 1011.07 1011.19 1011.28 1011.34 1011.37 1011.37 1011.34 1011.29 1011.22 1011.12 1010.98 1010.81 1010.60 1010.33 1010.01 1009.62 1009.18 1008.67 1008.10 1007.49 1006.83 1006.14 1005.42 1004.68 1003.92 1003.14 1002.35 1001.54 1000.70 999.86 999.01 998.16 997.32 996.52
1009.99 1010.09 1010.25 1010.44 1010.66 1010.88 1011.09 1011.28 1011.44 1011.56 1011.66 1011.72 1011.76 1011.78 1011.77 1011.76 1011.73 1011.69 1011.62 1011.52 1011.39 1011.20 1010.96 1010.65 1010.27 1009.82 1009.29 1008.71 1008.07 1007.40 1006.69 1005.96 1005.23 1004.48 1003.74 1002.98 1002.22 1001.45 1000.67 999.88 999.08 998.29 997.52
1010.28 1010.46 1010.68 1010.93 1011.18 1011.42 1011.62 1011.80 1011.93 1012.02 1012.08 1012.12 1012.14 1012.14 1012.15 1012.15 1012.15 1012.14 1012.10 1012.04 1011.94 1011.78 1011.56 1011.26 1010.88 1010.42 1009.89 1009.30 1008.65 1007.96 1007.25 1006.53 1005.81 1005.09 1004.38 1003.68 1002.97 1002.27 1001.56 1000.83 1000.10 999.36 998.62
1010.70 1010.93 1011.19 1011.46 1011.72 1011.95 1012.14 1012.28 1012.38 1012.45 1012.48 1012.50 1012.50 1012.51 1012.52 1012.55 1012.58 1012.60 1012.60 1012.57 1012.50 1012.36 1012.15 1011.86 1011.48 1011.02 1010.48 1009.88 1009.22 1008.54 1007.84 1007.13 1006.43 1005.74 1005.08 1004.42 1003.77 1003.13 1002.48 1001.82 1001.15 1000.46 999.76
1011.17 1011.43 1011.70 1011.98 1012.23 1012.44 1012.61 1012.72 1012.80 1012.84 1012.85 1012.86 1012.87 1012.90 1012.93 1012.98 1013.04 1013.10 1013.14 1013.13 1013.08 1012.96 1012.76 1012.46 1012.08 1011.62 1011.08 1010.47 1009.82 1009.14 1008.45 1007.76 1007.09 1006.44 1005.81 1005.20 1004.60 1004.01 1003.42 1002.81 1002.19 1001.56 1000.90
1011.65 1011.91 1012.18 1012.45 1012.68 1012.87 1013.01 1013.11 1013.17 1013.20 1013.22 1013.24 1013.27 1013.32 1013.39 1013.47 1013.56 1013.65 1013.71 1013.72 1013.68 1013.56 1013.36 1013.06 1012.68 1012.21 1011.67 1011.07 1010.42 1009.76 1009.09 1008.43 1007.79 1007.17 1006.58 1006.01 1005.46 1004.91 1004.36 1003.80 1003.22 1002.63 1002.01
1012.09 1012.35 1012.60 1012.85 1013.06 1013.24 1013.37 1013.46 1013.52 1013.56 1013.60 1013.65 1013.71 1013.79 1013.90 1014.01 1014.13 1014.24 1014.31 1014.34 1014.30 1014.17 1013.96 1013.66 1013.27 1012.80 1012.26 1011.67 1011.04 1010.40 1009.76 1009.13 1008.52 1007.94 1007.38 1006.85 1006.33 1005.82 1005.30 1004.78 1004.24 1003.69 1003.12
Thickness
5666 5663 5660 5657 5654 5652 5649 5646 5645 5643 5641 5639 5637 5635 5634 5633 5631 5628 5626 5624 5622 5620 5618 5615 5612 5610 5608 5606 5603 5600 5598 5595 5594 5596 5596 5598 5598 5598 5599 5599 5600 5600 5602
5661 5658 5655 5652 5649 5646 5644 5642 5640 5638 5636 5634 5632 5630 5629 5628 5626 5623 5620 5619 5616 5614 5612 5609 5607 5606 5603 5601 5598 5596 5594 5592 5590 5589 5590 5590 5590 5591 5591 5592 5593 5594 5595
5657 5653 5649 5646 5644 5642 5640 5638 5635 5633 5631 5630 5627 5625 5624 5622 5620 5618 5615 5613 5611 5608 5607 5604 5602 5600 5598 5596 5593 5591 5589 5589 5586 5584 5584 5583 5583 5584 5584 5584 5586 5587 5589
5653 5648 5644 5642 5640 5637 5635 5633 5631 5629 5627 5625 5623 5621 5620 5618 5616 5613 5610 5608 5605 5604 5602 5600 5597 5595 5593 5591 5589 5586 5584 5583 5581 5579 5578 5577 5576 5577 5576 5576 5577 5579 5581
5648 5644 5640 5638 5635 5633 5631 5630 5628 5626 5624 5622 5620 5618 5616 5614 5612 5608 5605 5603 5600 5599 5597 5595 5593 5592 5590 5587 5584 5581 5579 5577 5575 5573 5572 5571 5570 5569 5569 5569 5569 5571 5574
5644 5641 5638 5635 5632 5630 5628 5626 5625 5623 5621 5619 5617 5615 5612 5611 5608 5605 5601 5598 5596 5593 5591 5590 5589 5587 5585 5583 5581 5578 5576 5573 5570 5569 5567 5566 5566 5565 5564 5564 5562 5562 5564
5642 5638 5635 5633 5630 5627 5626 5624 5622 5620 5618 5616 5614 5612 5609 5607 5604 5601 5598 5594 5592 5589 5586 5584 5583 5582 5579 5577 5576 5574 5572 5571 5569 5565 5563 5562 5561 5560 5558 5558 5556 5556 5558
5640 5637 5634 5631 5628 5626 5623 5621 5619 5618 5616 5613 5611 5609 5606 5604 5601 5598 5595 5592 5588 5585 5582 5580 5577 5575 5574 5571 5570 5568 5566 5565 5564 5562 5560 5559 5558 5556 5554 5553 5552 5552 5554
5639 5636 5634 5632 5628 5625 5622 5620 5618 5616 5614 5612 5609 5605 5602 5600 5598 5595 5592 5587 5584 5581 5578 5575 5572 5569 5568 5565 5563 5560 5559 5558 5559 5557 5555 5554 5553 5552 5550 5547 5546 5545 5547
5639 5637 5635 5633 5629 5625 5622 5620 5618 5615 5612 5610 5607 5604 5600 5597 5595 5592 5588 5583 5579 5576 5573 5571 5568 5564 5561 5559 5555 5552 5550 5550 5549 5548 5547 5547 5547 5546 5545 5543 5542 5541 5542
5641 5638 5635 5632 5629 5626 5622 5620 5617 5614 5611 5608 5604 5601 5597 5594 5591 5588 5584 5578 5574 5570 5567 5564 5561 5558 5555 5553 5550 5546 5544 5543 5541 5539 5539 5539 5540 5540 5540 5540 5539 5538 5538
5640 5638 5635 5632 5630 5627 5622 5619 5616 5612 5608 5604 5600 5597 5594 5591 5587 5583 5579 5574 5570 5564 5560 5557 5554 5551 5549 5546 5544 5542 5540 5537 5534 5532 5531 5532 5532 5533 5535 5536 5536 5537 5538
5639 5636 5633 5632 5630 5626 5621 5617 5614 5610 5605 5601 5597 5592 5589 5586 5583 5578 5574 5569 5565 5559 5554 5551 5548 5545 5542 5540 5538 5536 5534 5530 5527 5525 5525 5525 5526 5528 5529 5531 5532 5534 5535
5637 5634 5632 5629 5627 5623 5620 5616 5611 5607 5603 5599 5594 5590 5585 5581 5577 5572 5567 5563 5558 5553 5549 5545 5542 5539 5535 5533 5531 5528 5526 5523 5520 5518 5518 5520 5521 5522 5523 5524 5525 5527 5528
5635 5632 5630 5627 5623 5619 5616 5612 5609 5606 5602 5597 5591 5586 5581 5576 5572 5567 5561 5556 5551 5546 5542 5538 5535 5531 5527 5524 5522 5520 5518 5516 5513 5512 5511 5512 5514 5515 5516 5517 5518 5519 5520
5634 5631 5627 5624 5621 5618 5613 5610 5608 5605 5601 5596 5591 5585 5579 5573 5568 5563 5557 5552 5546 5542 5536 5531 5526 5522 5519 5516 5513 5512 5510 5508 5505 5504 5503 5503 5505 5506 5508 5510 5510 5511 5513
5632 5630 5627 5624 5620 5616 5612 5608 5603 5600 5597 5593 5588 5583 5577 5571 5564 5558 5553 5547 5542 5537 5530 5524 5519 5515 5512 5509 5506 5504 5502 5500 5498 5497 5497 5496 5497 5498 5500 5502 5503 5504 5506
5632 5630 5627 5623 5619 5615 5611 5607 5602 5597 5591 5587 5584 5579 5573 5567 5561 5555 5548 5543 5536 5531 5524 5519 5514 5510 5506 5503 5500 5497 5495 5493 5492 5490 5489 5489 5490 5491 5492 5493 5495 5497 5499
5631 5628 5626 5622 5618 5614 5610 5605 5600 5595 5589 5583 5579 5574 5569 5563 5557 5550 5544 5536 5530 5524 5519 5514 5510 5506 5501 5497 5494 5492 5489 5487 5485 5484 5483 5482 5483 5483 5484 5485 5487 5489 5491
5630 5628 5625 5620 5617 5613 5609 5603 5598 5592 5586 5580 5574 5569 5564 5558 5551 5545 5539 5532 5526 5520 5516 5511 5506 5502 5497 5493 5490 5487 5484 5481 5479 5477 5476 5476 5476 5476 5476 5478 5480 5482 5484
5628 5626 5624 5620 5616 5612 5607 5602 5596 5590 5584 5577 5572 5567 5562 5554 5547 5541 5535 5529 5523 5518 5512 5507 5501 5497 5492 5488 5485 5482 5479 5476 5473 5470 5469 5469 5470 5469 5470 5470 5472 5474 5476
5628 5624 5621 5618 5614 5610 5605 5600 5595 5589 5583 5576 5569 5564 5558 5551 5544 5537 5531 5526 5520 5515 5509 5504 5498 5493 5488 5484 5480 5476 5473 5469 5467 5465 5463 5463 5463 5463 5464 5464 5466 5467 5470
5627 5624 5620 5617 5613 5609 5604 5598 5593 5587 5580 5574 5568 5561 5555 5547 5541 5534 5528 5522 5517 5511 5506 5500 5495 5490 5485 5481 5476 5472 5467 5464 5461 5459 5458 5458 5458 5458 5458 5459 5460 5462 5464
5627 5623 5619 5614 5611 5606 5601 5596 5591 5585 5579 5572 5565 5558 5551 5544 5538 5531 5525 5519 5513 5507 5502 5497 5491 5486 5482 5477 5473 5469 5464 5461 5458 5456 5454 5453 5453 5453 5454 5454 5455 5457 5458
5625 5621 5617 5613 5609 5604 5599 5594 5589 5583 5576 5569 5562 5554 5547 5541 5535 5528 5522 5516 5510 5504 5498 5493 5488 5483 5478 5474 5469 5465 5462 5459 5456 5454 5452 5450 5449 5449 5450 5450 5451 5452 5453
5623 5620 5616 5612 5607 5602 5597 5592 5586 5580 5574 5567 5559 5552 5545 5538 5532 5526 5519 5513 5507 5501 5495 5490 5484 5480 5475 5470 5466 5462 5459 5456 5454 5452 5450 5448 5446 5445 5445 5445 5446 5447 5447